LAPAN-A3

Last updated on Wed Sep 17 2025 00:02:31 GMT+0000 (Coordinated Universal Time)

1 41603U 16040E 25259.63907157 .00004276 00000+0 14718-3 0 9998 2 41603 97.1423 260.4220 0008753 276.8435 83.1811 15.30533330512934
UTC large
Height (km)
Speed (km/s)
/
Latitude / Longitude
Inclination (degrees)
Orbital Period (minutes)
Azimuth
Elevation
Range (km)
Doppler Factor

Next 0 passes for location: London (51.5072 / 0.1276)

Sorry there are no passes over London.